Weather History for Anderson, SC

Change the Weather History Date:

Tuesday, October 22, 2013

  Actual Average Record
Temperature  
Mean Temperature 62 °F -  
Max Temperature 69 °F 71 °F 85 °F (1949)
Min Temperature 55 °F 47 °F 25 °F (1952)
Degree Days  
Heating Degree Days 4    
Growing Degree Days 12 (Base 50)    
Moisture  
Dew Point 55 °F    
Average Humidity 85    
Maximum Humidity 100    
Minimum Humidity 52    
Precipitation  
Precipitation 0.01 in - - ()
Sea Level Pressure  
Sea Level Pressure 29.92 in    
Wind  
Wind Speed 2 mph (SW)    
Max Wind Speed 10 mph    
Max Gust Speed -    
Visibility 8 miles    
Events      
Averages and records for this station are not official NWS values.
T = Trace of Precipitation, MM = Missing Value Source: NWS Daily Summary

Daily Weather History Graph

Daily Weather History Graph

Search for Another Location

Airport:

Trip Planner

Search our weather history database for the weather conditions in past years. The results will help you decide how hot, cold, wet, or windy it might be!

Date:

Astronomy

Oct. 22, 2013 Rise Set
Actual Time 7:42 AM EDT 6:47 PM EDT
Civil Twilight 7:16 AM EDT 7:13 PM EDT
Nautical Twilight 6:47 AM EDT 7:42 PM EDT
Astronomical Twilight 6:18 AM EDT 8:11 PM EDT
Moon 9:33 PM EDT (10/22) 11:03 AM EDT (10/22)
Length of Visible Light 11h 56m
Length of Day
11h 05m
Waning Gibbous, 87% of the Moon is Illuminated
Oct 22
Waning Gibbous
Oct 26
Last Quarter
Nov 3
New
Nov 10
First Quarter
Nov 17
Full

Hourly Weather History & Observations

Time (EDT) Temp. Dew Point Humidity Pressure Visibility Wind Dir Wind Speed Gust Speed Precip Events Conditions
12:56 AM 55.9 °F 55.0 °F 97% 30.04 in 10.0 mi Calm Calm - 0.01 in   Partly Cloudy
1:56 AM 57.0 °F 55.9 °F 96% 30.03 in 9.0 mi Calm Calm - N/A   Partly Cloudy
2:56 AM 55.9 °F 55.0 °F 97% 30.01 in 8.0 mi Calm Calm - N/A   Clear
3:56 AM 55.9 °F 55.0 °F 97% 29.99 in 9.0 mi Calm Calm - N/A   Clear
4:56 AM 57.0 °F 55.0 °F 93% 29.99 in 9.0 mi Calm Calm - N/A   Overcast
5:56 AM 57.0 °F 55.9 °F 96% 29.99 in 9.0 mi Calm Calm - N/A   Overcast
6:56 AM 57.0 °F 55.9 °F 96% 29.99 in 6.0 mi Calm Calm - N/A   Overcast
7:56 AM 57.0 °F 55.9 °F 96% 29.98 in 7.0 mi Calm Calm - N/A   Overcast
8:56 AM 57.9 °F 57.0 °F 97% 29.98 in 6.0 mi SSW 3.5 mph - N/A   Overcast
9:56 AM 61.0 °F 57.9 °F 90% 29.98 in 9.0 mi West 3.5 mph - N/A   Overcast
10:56 AM 62.1 °F 55.0 °F 78% 29.97 in 10.0 mi West 5.8 mph - N/A   Overcast
11:56 AM 64.9 °F 53.1 °F 65% 29.95 in 10.0 mi West 6.9 mph - N/A   Overcast
12:56 PM 68.0 °F 50.0 °F 52% 29.92 in 10.0 mi West 6.9 mph - N/A   Overcast
1:56 PM 66.9 °F 48.9 °F 52% 29.89 in 10.0 mi WSW 6.9 mph - N/A   Overcast
2:56 PM 68.0 °F 53.1 °F 59% 29.87 in 10.0 mi SSW 6.9 mph - N/A   Overcast
3:56 PM 66.0 °F 55.9 °F 70% 29.86 in 10.0 mi SSW 8.1 mph - N/A   Overcast
4:56 PM 66.0 °F 55.9 °F 70% 29.84 in 10.0 mi SSW 5.8 mph - N/A   Mostly Cloudy
5:56 PM 64.9 °F 55.9 °F 73% 29.84 in 10.0 mi South 10.4 mph - N/A   Scattered Clouds
6:56 PM 62.1 °F 57.0 °F 84% 29.84 in 10.0 mi South 4.6 mph - N/A   Mostly Cloudy
7:56 PM 62.1 °F 57.9 °F 86% 29.84 in 10.0 mi SSW 5.8 mph - N/A   Overcast
8:56 PM 59.0 °F 55.9 °F 90% 29.83 in 10.0 mi South 3.5 mph - N/A   Scattered Clouds
9:56 PM 57.9 °F 57.0 °F 97% 29.84 in 6.0 mi Calm Calm - N/A   Clear
10:45 PM 57.2 °F 55.4 °F 94% 29.85 in 2.5 mi Calm Calm - N/A   Clear
10:54 PM 55.4 °F 55.4 °F 100% 29.85 in 5.0 mi Calm Calm - N/A   Partly Cloudy
10:56 PM 55.9 °F 55.0 °F 97% 29.84 in 6.0 mi Calm Calm - N/A   Scattered Clouds
11:56 PM 57.0 °F 54.0 °F 89% 29.83 in 10.0 mi WSW 3.5 mph - N/A   Partly Cloudy